• MPC Preparation (Info)

  • MPEC 2006-L05 : 2006 LA

    The following Minor Planet Electronic Circular may be linked-to from your own Web pages, but must not otherwise be redistributed electronically.

    A form allowing access to any MPEC is at the bottom of this page.


    Read MPEC 2006-L04 Read MPEC 2006-L06


    M.P.E.C. 2006-L05                                Issued 2006 June 2, 05:31 UT
    
         The Minor Planet Electronic Circulars contain information on unusual
             minor planets and routine data on comets.  They are published
       on behalf of Commission 20 of the International Astronomical Union by the
              Minor Planet Center, Smithsonian Astrophysical Observatory,
                              Cambridge, MA 02138, U.S.A.
    
                      Supported in part by the Brinson Foundation
                      Supported in part by the TABASGO Foundation
                 Prepared using the Tamkin Foundation Computer Network
    
                                  MPC@CFA.HARVARD.EDU
              URL http://cfa-www.harvard.edu/iau/mpc.html  ISSN 1523-6714
    
                                        2006 LA
    
    Observations:
         K06L00A* C2006 06 01.18633 10 52 59.91 -05 27 32.2          19.0 V EL005703
         K06L00A  C2006 06 01.19609 10 53 04.74 -05 27 59.7          18.5 V EL005703
         K06L00A  C2006 06 01.20585 10 53 09.16 -05 28 27.6          19.3 V EL005703
         K06L00A  C2006 06 01.21558 10 53 13.95 -05 28 57.5          18.7 V EL005703
         K06L00A  C2006 06 01.41414 10 54 49.78 -05 38 29.2          19.1 V EL005E12
         K06L00A  C2006 06 01.41466 10 54 50.07 -05 38 31.3          18.9 V EL005E12
         K06L00A  C2006 06 01.41520 10 54 50.36 -05 38 32.6          18.5 V EL005E12
         K06L00A  C2006 06 01.41572 10 54 50.61 -05 38 34.6          19.3 V EL005E12
         K06L00A  C2006 06 02.12267 11 00 20.74 -06 12 58.3          19.7 R EL005734
         K06L00A  C2006 06 02.12812 11 00 23.12 -06 13 13.3          19.8 R EL005734
         K06L00A  C2006 06 02.16138 11 00 38.30 -06 14 45.0          20.1 V EL005G96
         K06L00A  C2006 06 02.16179 11 00 38.48 -06 14 46.2          20.2 V EL005G96
         K06L00A  C2006 06 02.16221 11 00 38.66 -06 14 47.5          20.2 V EL005G96
         K06L00A  C2006 06 02.16263 11 00 38.84 -06 14 48.7          20.1 V EL005G96
    
    Observer details:
    703 Catalina Sky Survey.  Observer A. R. Gibbs.  Measurers E. C. Beshore,
        E. J. Christensen, G. J. Garradd, A. R. Gibbs, A. D. Grauer, R. E. Hill,
        R. A. Kowalski, S. M. Larson, R. H. McNaught.  0.68-m Schmidt + CCD.
    734 Farpoint Observatory.  Observer G. Hug.  0.7-m reflector + CCD.
    E12 Siding Spring Survey.  Observer G. J. Garradd.  Measurers E. C. Beshore,
        E. J. Christensen, G. J. Garradd, A. R. Gibbs, A. D. Grauer, R. E. Hill,
        R. A. Kowalski, S. M. Larson, R. H. McNaught.  0.5-m Uppsala Schmidt + CCD.
    G96 Mt. Lemmon Survey.  Observer R. Hill.  Measurers E. C. Beshore,
        E. J. Christensen, G. J. Garradd, A. R. Gibbs, A. D. Grauer, R. E. Hill,
        R. A. Kowalski, S. M. Larson, R. H. McNaught.  1.5-m reflector + CCD.
    
    Orbital elements:
    2006 LA                                                  Earth MOID = 0.0584 AU
    Epoch 2006 Mar. 6.0 TT = JDT 2453800.5                  MPC
    M 341.47295              (2000.0)            P               Q
    n   0.50821848     Peri.   67.65490     -0.07757336     -0.99312774
    a   1.5551385      Node    27.24434     +0.82974904     -0.11304118
    e   0.8380630      Incl.   11.03621     +0.55271956     +0.03031474
    P   1.94           H   18.8           G   0.15           U   9
    Residuals in seconds of arc
    060601 703  0.1-  1.8-    060601 E12  0.0   0.2-    060602 G96  0.1+  0.1+
    060601 703  2.2+  0.0     060601 E12  0.6+  0.1+    060602 G96  0.1+  0.1+
    060601 703  1.7-  1.4+    060601 E12  0.7+  0.3-    060602 G96  0.1-  0.0
    060601 703  0.3+  0.7+    060602 734  1.1+  0.1-    060602 G96  0.2-  0.1-
    060601 E12  0.6-  0.4+    060602 734  0.1-  0.2+
    
    Ephemeris:
    2006 LA                  a,e,i = 1.56, 0.84, 11                  q = 0.2518
    Date    TT    R. A. (2000) Decl.     Delta      r     Elong.  Phase     V
    2006 05 25    09 39.34   +02 23.3    0.327    1.025    82.9    78.7    19.2
    2006 06 04    11 13.84   -07 34.8    0.460    1.178    99.0    58.3    19.6
    2006 06 14    12 06.05   -12 30.5    0.636    1.318   103.4    48.6    20.2
    2006 06 24    12 39.61   -15 18.2    0.831    1.447   102.7    43.3    20.9
    2006 07 04    13 04.64   -17 12.4    1.034    1.566    99.6    39.8    21.4
    2006 07 14    13 25.37   -18 41.2    1.243    1.677    95.3    37.1    21.9
    
    Kyle E. Smalley              (C) Copyright 2006 MPC           M.P.E.C. 2006-L05
    

    Read MPEC 2006-L04 Read MPEC 2006-L06


    MPEC number:

    Enter an MPEC number in one of the following forms:

    • 1997-B01 (the full form)
    • J97B01 (the packed version of the full form)
    • B01 (the abbreviated form)